DG7AA-13 Weather Reports


time (UTC)temp
C
wind
direction
speed
KPH
gust
KPH
rain 1hr
cm
rain 24hr
cm
rain mn
cm
humidity
%
barometer
mb
20260507093531 8 345 4.8 6.4 0.00 0.00 0.00 97
20260507092523 8 345 4.8 11.3 0.00 0.00 0.00 96
20260507091527 8 338 3.2 6.4 0.00 0.00 0.00 96
20260507090523 8 351 4.8 11.3 0.00 0.00 0.00 96
20260507085531 8 340 6.4 11.3 0.00 0.00 0.00 96
20260507084523 8 353 4.8 11.3 0.00 0.00 0.00 97
20260507083522 8 334 4.8 9.7 0.00 0.00 0.00 97
20260507082522 8 355 4.8 8.0 0.00 0.00 0.00 97
20260507081531 7 343 4.8 8.0 0.00 0.00 0.00 97
20260507080526 7 353 6.4 11.3 0.00 0.00 0.00 97
20260507075533 7 337 4.8 9.7 0.00 0.00 0.00 97
20260507074523 7 341 4.8 9.7 0.00 0.00 0.00 97
20260507073522 7 341 4.8 8.0 0.00 0.00 0.00 97
20260507072523 7 341 4.8 11.3 0.00 0.00 0.00 97
20260507071534 7 344 3.2 8.0 0.00 0.00 0.00 97
20260507070523 7 346 4.8 12.9 0.00 0.00 0.00 97
20260507065534 7 340 6.4 11.3 0.00 0.00 0.00 97
20260507064523 7 348 6.4 11.3 0.00 0.00 0.00 97
20260507063536 7 343 3.2 8.0 0.00 0.00 0.00 98
20260507062526 7 347 3.2 9.7 0.00 0.00 0.00 98
20260507061531 7 346 4.8 11.3 0.00 0.00 0.00 98
20260507060527 8 340 3.2 4.8 0.00 0.00 0.00 98
20260507055531 7 342 3.2 6.4 0.00 0.00 0.00 98
20260507054538 7 343 4.8 12.9 0.00 0.00 0.00 98
20260507053531 8 341 3.2 6.4 0.00 0.00 0.00 98
20260507052524 8 339 1.6 6.4 0.00 0.00 0.00 98
20260507051531 8 337 3.2 4.8 0.00 0.00 0.00 98
20260507050523 8 339 3.2 6.4 0.00 0.00 0.00 98
20260507045534 8 319 1.6 3.2 0.00 0.00 0.00 98
20260507044525 8 356 3.2 9.7 0.00 0.00 0.00 98
20260507043529 8 341 4.8 11.3 0.00 0.00 0.00 98
20260507042522 8 341 3.2 11.3 0.00 0.00 0.00 98
20260507041530 8 343 1.6 6.4 0.00 0.00 0.00 98
20260507040523 8 352 3.2 11.3 0.00 0.00 0.00 98
20260507035532 8 337 3.2 8.0 0.00 0.00 0.00 98
20260507034527 8 351 3.2 6.4 0.00 0.00 0.00 98
20260507033534 8 353 1.6 6.4 0.00 0.00 0.00 98
20260507032523 8 344 3.2 6.4 0.00 0.00 0.00 98
20260507031527 8 337 3.2 6.4 0.00 0.00 0.00 98
20260507030522 8 341 1.6 4.8 0.00 0.00 0.00 98
20260507025522 8 328 1.6 3.2 0.00 0.00 0.00 98
20260507024522 8 344 1.6 6.4 0.00 0.00 0.00 98
20260507023534 8 345 3.2 4.8 0.00 0.00 0.00 98
20260507022526 8 343 3.2 4.8 0.00 0.00 0.00 98
20260507021531 8 339 3.2 4.8 0.00 0.00 0.00 98
20260507020523 8 341 3.2 6.4 0.00 0.00 0.00 98
20260507015533 8 345 4.8 11.3 0.00 0.00 0.00 98
20260507014523 8 326 3.2 6.4 0.00 0.00 0.00 98
20260507013527 8 349 3.2 6.4 0.00 0.00 0.00 98
20260507012523 8 340 4.8 6.4 0.00 0.00 0.00 98
20260507011534 8 338 4.8 6.4 0.00 0.00 0.00 98
20260507010522 8 341 3.2 6.4 0.00 0.00 0.00 98
20260507005536 8 338 3.2 6.4 0.00 0.00 0.00 98
20260507004533 8 343 4.8 9.7 0.00 0.03 0.00 98
20260507003546 8 340 4.8 6.4 0.00 0.05 0.00 98
20260507002525 8 349 3.2 6.4 0.00 0.10 0.00 98
20260507001519 8 334 3.2 8.0 0.00 0.15 0.00 98
20260507000523 8 333 3.2 6.4 0.00 0.18 0.00 98
20260506235521 8 343 3.2 6.4 0.00 0.23 0.00 98
20260506234523 8 346 3.2 6.4 0.00 0.30 0.00 98
20260506233534 8 338 3.2 8.0 0.00 0.33 0.00 98
20260506232527 8 333 4.8 6.4 0.00 0.36 0.00 98
20260506231534 8 337 3.2 6.4 0.00 0.38 0.00 99
20260506230526 8 344 3.2 6.4 0.00 0.43 0.00 99
20260506225533 8 346 1.6 4.8 0.00 0.46 0.00 99
20260506224526 8 331 3.2 6.4 0.00 0.48 0.00 99
20260506223533 8 334 3.2 8.0 0.00 0.51 0.00 99
20260506222523 8 345 3.2 6.4 0.00 0.53 0.00 99
20260506221534 8 337 3.2 6.4 0.00 0.53 0.00 99
20260506220523 8 344 3.2 6.4 0.00 0.56 0.00 99
20260506215527 8 338 3.2 6.4 0.00 0.61 0.61 99
20260506214524 8 342 3.2 6.4 0.00 0.61 0.61 99
20260506213525 8 347 3.2 6.4 0.00 0.64 0.61 98
20260506212525 8 331 3.2 6.4 0.00 0.66 0.61 98
20260506211534 8 344 3.2 4.8 0.00 0.66 0.61 98
20260506210523 8 340 3.2 6.4 0.00 0.69 0.61 98
20260506205531 8 342 3.2 6.4 0.00 0.69 0.61 98
20260506204524 9 346 3.2 6.4 0.00 0.71 0.61 98
20260506203531 8 337 3.2 6.4 0.00 0.71 0.61 98
20260506202525 9 346 3.2 6.4 0.00 0.76 0.61 98
20260506201531 9 351 3.2 6.4 0.00 0.76 0.61 98
20260506200526 9 348 4.8 8.0 0.00 0.76 0.61 98
20260506195525 9 349 4.8 6.4 0.00 0.79 0.61 98
20260506194526 9 341 3.2 6.4 0.00 0.79 0.61 98
20260506193534 9 346 3.2 6.4 0.00 0.79 0.61 98
20260506192523 9 334 3.2 4.8 0.00 0.79 0.61 98
20260506191531 9 343 3.2 6.4 0.00 0.79 0.61 97
20260506190523 9 337 3.2 6.4 0.00 0.79 0.61 97
20260506185524 10 340 3.2 6.4 0.00 0.79 0.61 97
20260506184523 10 340 3.2 6.4 0.00 0.79 0.61 97
20260506183530 10 342 3.2 6.4 0.00 0.79 0.61 97
20260506182523 10 347 3.2 8.0 0.00 0.79 0.61 97
20260506181534 10 338 3.2 4.8 0.00 0.79 0.61 97
20260506180523 10 341 3.2 6.4 0.00 0.79 0.61 97
20260506175524 10 346 4.8 8.0 0.00 0.79 0.61 97
20260506174523 10 341 3.2 6.4 0.00 0.79 0.61 97
20260506173531 10 342 3.2 6.4 0.00 0.79 0.61 97
20260506172522 10 336 3.2 6.4 0.00 0.79 0.61 97
20260506171531 10 340 3.2 6.4 0.00 0.79 0.61 97
20260506170526 10 338 3.2 6.4 0.00 0.79 0.61 97
20260506165531 10 347 4.8 8.0 0.00 0.79 0.61 97
20260506164526 10 340 3.2 6.4 0.00 0.79 0.61 97
20260506163529 10 337 3.2 6.4 0.00 0.79 0.61 97
20260506162523 10 344 3.2 6.4 0.00 0.79 0.61 97
20260506161521 10 334 3.2 6.4 0.00 0.79 0.61 97
20260506160523 10 349 4.8 8.0 0.00 0.79 0.61 97
20260506155534 11 346 4.8 9.7 0.00 0.79 0.61 97
20260506154522 11 341 4.8 6.4 0.00 0.79 0.61 97
20260506153531 11 337 1.6 4.8 0.00 0.79 0.61 97
20260506152526 11 350 3.2 4.8 0.00 0.79 0.61 96
20260506151533 11 344 1.6 6.4 0.00 0.79 0.61 96
20260506150524 11 356 0.0 4.8 0.00 0.79 0.61 96
20260506145534 11 336 3.2 6.4 0.00 0.79 0.61 96
20260506144523 11 346 4.8 8.0 0.00 0.79 0.61 96
20260506143526 11 352 3.2 8.0 0.00 0.79 0.61 96
20260506142523 11 337 1.6 6.4 0.00 0.79 0.61 96
20260506141534 11 342 4.8 8.0 0.00 0.79 0.61 96
20260506140527 11 334 3.2 8.0 0.00 0.79 0.61 96
20260506135531 11 349 3.2 6.4 0.00 0.79 0.61 97
20260506134524 11 340 3.2 8.0 0.00 0.79 0.61 97
20260506133525 11 344 3.2 6.4 0.00 0.79 0.61 97
20260506132522 11 352 4.8 9.7 0.00 0.79 0.61 97
20260506131534 11 346 3.2 8.0 0.00 0.79 0.61 97
20260506130522 11 339 3.2 6.4 0.00 0.79 0.61 97
20260506125522 11 351 4.8 9.7 0.00 0.79 0.61 97
20260506124523 11 345 3.2 6.4 0.00 0.79 0.61 97
20260506123533 11 332 3.2 8.0 0.00 0.79 0.61 97
20260506122526 11 338 3.2 8.0 0.00 0.79 0.61 96
20260506121534 11 331 3.2 6.4 0.00 0.79 0.61 96
20260506120522 11 341 4.8 11.3 0.00 0.79 0.61 96
20260506115530 11 338 4.8 9.7 0.00 0.79 0.61 96
20260506114548 11 348 3.2 6.4 0.00 0.79 0.61 96
20260506113531 10 337 3.2 8.0 0.00 0.79 0.61 97
20260506112523 10 341 4.8 8.0 0.00 0.79 0.61 97
20260506111527 10 348 4.8 8.0 0.00 0.79 0.61 97
20260506110525 11 348 4.8 8.0 0.00 0.79 0.61 97
20260506105534 11 347 3.2 6.4 0.00 0.79 0.61 97
20260506104526 11 337 4.8 9.7 0.00 0.79 0.61 97
20260506103530 10 345 3.2 8.0 0.00 0.79 0.61 98
20260506102523 10 351 3.2 6.4 0.00 0.79 0.61 98
20260506101524 10 345 3.2 8.0 0.00 0.79 0.61 97
20260506100523 10 347 3.2 8.0 0.00 0.79 0.61 97
20260506095533 10 346 1.6 6.4 0.00 0.79 0.61 98
20260506094525 10 350 3.2 6.4 0.00 0.79 0.61 98